Location: Champseau
(45.8333°N, 1.7667°E)
Time: 17:57:05
(UTC+00:00)

STRAND 1 - Pass Details

Date: 06 December 2021
Orbit: 768 x 780 km, 98.4° (Epoch: 23 January)

Event Time Altitude Azimuth Distance (km) Brightness Sun altitude
Rises 04:42:43 0° 121° (ESE) 3,248 ? -26.4°
Reaches altitude 10° 04:45:36 10° 105° (ESE) 2,323 ? -25.9°
Maximum altitude 04:49:11 20° 60° (ENE) 1,752 ? -25.3°
Drops below altitude 10° 04:52:46 10° 15° (NNE) 2,328 ? -24.7°
Sets 04:55:39 0° 359° (N) 3,257 ? -24.2°
